This is the latest recevied weather packets stored in our database for station/object KC3JUG-13. If no packets are shown the sender has not sent any weather packets the latest 10 day(s).
| Time | Temp. | Humidity | Pressure | Rain* | Wind** | Luminosity | Snow |
|---|---|---|---|---|---|---|---|
| 1788454286 | 25° C | 85% | 1017.3 hPa | 0 mm | - | - | - |
| 1788453506 | 25.56° C | 86% | 1017.5 hPa | 0 mm | - | - | - |
| 1788452726 | 25° C | 88% | 1017.5 hPa | 0 mm | - | - | - |
| 1788451946 | 25° C | 87% | 1017.8 hPa | 0 mm | - | - | - |
| 1788451167 | 24.44° C | 91% | 1017.9 hPa | 0 mm | - | - | - |
| 1788450386 | 24.44° C | 93% | 1018.2 hPa | 0 mm | - | - | - |
| 1788449607 | 23.89° C | 95% | 1018.4 hPa | 0 mm | - | - | - |
| 1788448826 | 23.33° C | 95% | 1018.6 hPa | 0 mm | - | - | - |
| 1788448046 | 23.33° C | 96% | 1018.7 hPa | 0 mm | - | - | - |
| 1788447266 | 23.33° C | 97% | 1018.5 hPa | 0 mm | - | - | - |
| 1788446486 | 22.78° C | 97% | 1018.6 hPa | 0 mm | - | - | - |
| 1788445706 | 22.78° C | 98% | 1019.3 hPa | 0 mm | - | - | - |
| 1788444926 | 22.22° C | 99% | 1018.2 hPa | 0 mm | - | - | - |
| 1788444146 | 22.22° C | 99% | 1017.9 hPa | 0 mm | - | - | - |
| 1788443366 | 21.67° C | 99% | 1017.9 hPa | 0 mm | - | - | - |
| 1788442586 | 21.67° C | 99% | 1018.3 hPa | 0 mm | - | - | - |
| 1788441806 | 21.67° C | 99% | 1018.2 hPa | 0 mm | - | - | - |
| 1788441026 | 21.67° C | 100% | 1018 hPa | 0 mm | - | - | - |
| 1788440246 | 21.11° C | 100% | 1017.7 hPa | 0 mm | - | - | - |
| 1788439474 | 21.11° C | 99% | 1017.7 hPa | 0.25 mm | - | - | - |
| 1788438686 | 20.56° C | 100% | 1017.4 hPa | 0.25 mm | - | - | - |
| 1788437906 | 20.56° C | 99% | 1017.5 hPa | 0.25 mm | - | - | - |
| 1788437126 | 20.56° C | 99% | 1017.8 hPa | 0.25 mm | - | - | - |
| 1788436346 | 20° C | 100% | 1017.8 hPa | 0 mm | - | - | - |
| 1788435566 | 19.44° C | 99% | 1017.8 hPa | 0.25 mm | - | - | - |
* Rain latest hour (hover to see other rain measurements)
** Current wind speed in m/s (hover to see current wind gust speed)